Regional Weather Roundup
Issued by NWS

Home | Current Version | Previous Version | Text Only | Print | Product List | Glossary Off
Versions: 1 2 3 4 5 6 7 8 9 10 11 12 13 14 15 16 17 18 19 20 21 22 23 24 25 26 27 28 29 30 31 32 33 34 35 36 37 38 39 40 41 42 43 44 45 46 47 48 49 50

000
ASUS43 KLOT 310506
RWRIL

ILLINOIS REGIONAL WEATHER ROUNDUP
NATIONAL WEATHER SERVICE CHICAGO/ROMEOVILLE IL
1200 AM CDT FRI OCT 31 2014

NOTE: "FAIR" INDICATES FEW OR NO CLOUDS BELOW 12,000 FEET WITH NO
SIGNIFICANT WEATHER AND/OR OBSTRUCTIONS TO VISIBILITY.

* THESE STATIONS ARE NOT UNDER NWS QUALITY CONTROL. THEY ALSO MAY NOT
  REPORT WEATHER SUCH AS PRECIPITATION OR FOG.

ILZ001-002-007-009-015-016-024-310600-
NORTHWEST ILLINOIS

CITY           SKY/WX    TMP DP  RH WIND       PRES   REMARKS
MOLINE         CLOUDY    46  39  76 W3        30.10F
STERLING*      CLOUDY    46  37  71 NW7       30.09S
SAVANNA*       LGT RAIN  48  38  68 NW7       30.10S
$$

ILZ003-004-008-010-011-017-018-310600-
NORTH CENTRAL ILLINOIS

CITY           SKY/WX    TMP DP  RH WIND       PRES   REMARKS
ROCKFORD       LGT RAIN  47  38  71 NW9       30.08S
FREEPORT*      DRIZZLE   45  38  76 W8        30.09S
ROCHELLE*      CLOUDY    44  38  80 W7        30.07S
DE KALB*       DRIZZLE   44  36  73 NW8       30.06S
PERU*          CLOUDY    45  39  81 W7        30.08F
$$

ILZ005-006-012>014-019>023-310600-
NORTHEAST ILLINOIS

CITY           SKY/WX    TMP DP  RH WIND       PRES   REMARKS
CHICAGO-OHARE  CLOUDY    46  36  68 W7        30.03F
CHICAGO-MIDWAY CLOUDY    48  37  65 W9        30.04F
AURORA         CLOUDY    44  37  76 W6        30.06F
LANSING*       MOCLDY    44  37  75 W6        30.04F
JOLIET*        CLOUDY    45  37  73 W5        30.06S
WAUKEGAN       CLOUDY    46  36  68 W5        30.02F
DUPAGE AIRPORT CLOUDY    45  37  73 W6        30.04F
KANKAKEE*      CLOUDY    42  38  88 W6        30.06F
WHEELING       CLOUDY    48  35  60 W7        30.05F
MORRIS*        CLOUDY    45  39  81 W7        30.05F
ROMEOVILLE*    CLOUDY    44  37  75 W5        30.05F
NORTHERLY ISL    N/A     48  36  63 W3          N/A
$$

LMZ740>746-310600-
SOUTHERN LAKE MICHIGAN

STATION/POSITION SKY/WX   TEMP    WIND        PRES    VSBY  WAVE
                          AIR SEA DIR/SP/G                  HT/PER
                          (F)     (DEG/KT/KT) (MB)    (MI)  (FT/S)
SOUTHERN BUOY              50 53  280/ 16/ 19 1016.0F         2/ 3
WAUKEGAN HARBOR            48     290/  8/ 12   N/A
HARRISON CRIB              49     270/ 11/ 13   N/A
BURNHAM HARBOR             48     250/  5/  9   N/A
CALUMET HARBOR             47     240/  6/  8 1016.0F
MICHIGAN CITY              49     240/ 16/ 19   N/A
$$

ILZ025>027-034>036-040-047-049-050-058-095>099-310600-
WEST-CENTRAL ILLINOIS

CITY           SKY/WX    TMP DP  RH WIND       PRES   REMARKS
QUINCY         CLOUDY    47  41  80 N9        30.10R
GALESBURG*     DRIZZLE   44  41  90 NW3       30.11R
MACOMB*        CLOUDY    45  41  88 N3        30.12S
JACKSONVILLE*  CLOUDY    46  43  91 N5        30.08S
PITTSFIELD*    MOCLDY    46  42  87 N3        30.09R
$$

ILZ028>032-037-038-041>044-048-051>054-059>061-310600-
CENTRAL ILLINOIS

CITY           SKY/WX    TMP DP  RH WIND       PRES   REMARKS
PONTIAC        CLOUDY    43  42  93 W5        30.08F
BLOOMINGTON    CLOUDY    44  42  93 N5        30.08S
DECATUR        CLOUDY    46  44  93 N5        30.07R
PEORIA         CLOUDY    46  42  86 CALM      30.09S FOG
LACON*         CLOUDY    42  40  93 CALM      30.08S
LINCOLN*       LGT RAIN  45  42  90 CALM      30.07S
SPRINGFIELD    CLOUDY    47  43  86 N5        30.08R
TAYLORVILLE    CLOUDY    45  43  93 CALM      30.06R
$$

ILZ033-039-045-046-055>057-062-063-310600-
EAST-CENTRAL ILLINOIS

CITY           SKY/WX    TMP DP  RH WIND       PRES   REMARKS
CHAMPAIGN      MOCLDY    44  42  93 N8        30.06S
DANVILLE*      MOCLDY    43  40  89 NW5       30.03F
RANTOUL*       CLOUDY    45  42  90 NW3       30.07F
MATTOON        CLOUDY    46  43  89 CALM      30.05S
PARIS*         MOCLDY    46  44  95 CALM      30.06F
$$

ILZ079-100>102-310600-
SOUTHWEST ILLINOIS

CITY           SKY/WX    TMP DP  RH WIND       PRES   REMARKS
ALTON          CLOUDY    49  45  86 CALM      30.05S
BELLEVILLE     MOCLDY    49  48  99 NE2       30.03R
CAHOKIA*       CLEAR     47  46  97 W5        30.04R FOG
SPARTA*        MOCLDY    48  47  97 CALM      30.04F
$$

ILZ064>066-069>071-074>076-080>082-084>086-088>090-092>094-310600-
SOUTH-CENTRAL ILLINOIS

CITY           SKY/WX    TMP DP  RH WIND       PRES   REMARKS
CARBONDALE     CLOUDY    51  48  89 CALM      30.03S
CAIRO*         DRIZZLE   55  51  87 CALM      30.02F
EFFINGHAM*     CLOUDY    47  43  85 E3        30.06S
MARION         CLOUDY    52  50  93 CALM      30.03F
MT. VERNON     CLOUDY    48  45  87 NE3       30.04S
CENTRALIA*     CLOUDY    49  46  88 CALM      30.04S
SALEM*         CLOUDY    50  48  91 E5        30.05S
METROPOLIS*    CLOUDY    52  52 100 CALM      30.01F FOG
$$

ILZ067-068-072-073-078-083-087-091-310600-
SOUTHEAST ILLINOIS

CITY           SKY/WX    TMP DP  RH WIND       PRES   REMARKS
LAWRENCEVILLE  LGT RAIN  48  45  89 NE5       30.07S
FLORA*         MOCLDY    48  45  91 NE8       30.05S
FAIRFIELD*     RAIN      49  46  90 NE3       30.03F
HARRISBURG*    DRIZZLE   51  48  89 CALM      30.04F
ROBINSON*      LGT RAIN  48  46  92 CALM      30.08S
CARMI*         DRIZZLE   51  49  92 NE5       30.04S
$$

ABBREVIATIONS USED IN REMARKS
   TC - TEMPERATURE IN CELSIUS
  WCI - WIND CHILL INDEX
   HX - HEAT INDEX
  VSB - VISIBILITY
$$




USA.gov is the U.S. government's official web portal to all federal, state and local government web resources and services.